Location: Rosenheim
(47.8408°N, 12.2113°E)
Time: 20:18:15
(UTC+01:00)

ISS - Pass Details

Date: 09 January 2018
Orbit: 401 x 407 km, 51.6° (Epoch: 17 January)

Event Time Altitude Azimuth Distance (km) Brightness Sun altitude
Exits shadow 05:49:56 44° 27° (NNE) 571 -3.1 -20.8°
Drops below altitude 10° 05:52:51 10° 85° (E) 1,466 0.1 -20.3°
Sets 05:54:59 0° 92° (E) 2,327 1.6 -20.0°
